Regional Weather Roundup
Issued by NWS

Home | Current Version | Previous Version | Text Only | Print | Product List | Glossary Off
Versions: 1 2 3 4 5 6 7 8 9 10 11 12 13 14 15 16 17 18 19 20 21 22 23 24 25 26 27 28 29 30 31 32 33 34 35 36 37 38 39 40 41 42 43 44 45 46 47 48 49 50

000
ASUS43 KDTX 262201
RWRMI
MICHIGAN HOURLY REGIONAL WEATHER ROUNDUP
NATIONAL WEATHER SERVICE DETROIT/PONTIAC MI
600 PM EDT THU MAR 26 2015

NOTE: "FAIR" INDICATES FEW OR NO CLOUDS BELOW 12,000 FEET WITH NO
SIGNIFICANT WEATHER AND/OR OBSTRUCTION TO VISIBILITY.

MIZ047>049-052>055-059>063-066>070-074>076-081>083-262300-
SOUTHEAST LOWER MICHIGAN

CITY           SKY/WX    TMP DP  RH WIND       PRES   REMARKS
ADRIAN         CLOUDY    41  24  51 N14G20    29.88R
ALMA           CLOUDY    37  26  65 W14       29.89R WCI  28
ANN ARBOR      CLOUDY    41  24  51 NW13      29.86R
BAD AXE        CLOUDY    37  26  63 W7        29.84R WCI  32
CARO           CLOUDY    38  27  64 W9        29.85R WCI  31
DETROIT CITY   CLOUDY    44  24  45 NW9       29.85R
DETROIT        CLOUDY    44  25  47 W9        29.86R
FLINT          CLOUDY    40  24  53 NW17G23   29.87R WCI  31
GROSSE ILE     CLOUDY    43  27  52 NW13      29.84R
HILLSDALE      CLOUDY    40  24  53 NW12      29.89R WCI  32
HOWELL         CLOUDY    38  23  53 W12       29.87R WCI  31

CITY           SKY/WX    TMP DP  RH WIND       PRES   REMARKS
JACKSON        CLOUDY    38  23  55 W17       29.89R WCI  28
LAMBERTVILLE   CLOUDY    45  28  53 W7        29.87S
LANSING        CLOUDY    38  23  55 W12       29.90R WCI  30
LAPEER         CLOUDY    38  23  55 W9G18     29.84R WCI  32
MASON          CLOUDY    38  22  52 W13       29.89R WCI  30
MONROE         CLOUDY    43  27  52 NW13      29.85R
MT. CLEMENS    CLOUDY    42  26  52 NW12      29.82R
PONTIAC        CLOUDY    39  24  55 NW16      29.84R WCI  30
PORT HOPE        N/A     38  25  59 W8        29.80R WCI  32
PORT HURON     CLOUDY    39  27  60 NW8       29.85R WCI  34
TRI CITIES     CLOUDY    38  25  59 NW12      29.87R WCI  30
TROY           CLOUDY    42  25  49 W8        29.87R
SAGINAW HB     CLOUDY    37  27  65 W13       29.86R WCI  29
$$
MIZ043>046-050>051-056>058-064>065-071>073-077>080-262300-
SOUTHWEST LOWER MICHIGAN

CITY           SKY/WX    TMP DP  RH WIND       PRES   REMARKS
BATTLE CREEK   CLOUDY    37  22  54 NW16      29.93R WCI  28
BENTON HARBOR  CLOUDY    35  26  69 NW7       29.98R WCI  29
BIG RAPIDS     FLURRIES  32  22  66 NW9G18    29.90R WCI  25
COLDWATER      CLOUDY    37  22  54 NW16G22   29.92R WCI  28
FREMONT        FLURRIES  32  27  81 NW10      29.94R WCI  24
HOLLAND        CLOUDY    35  27  72 NW13G20   29.96R WCI  26
GRAND RAPIDS   FLURRIES  36  24  62 NW16      29.92R WCI  26
IONIA          CLOUDY    37  25  62 NW12G17   29.89R WCI  29
KALAMAZOO      CLOUDY    38  21  50 W15       29.94R WCI  29
LUDINGTON      CLOUDY    31  23  73 N9        29.97R WCI  23
MARSHALL       CLOUDY    36  22  56 W13G20    29.91R WCI  28
MOUNT PLEASANT CLOUDY    36  25  63 NW14      29.88R WCI  27
MUSKEGON       CLOUDY    34  24  67 NW13G22   29.95R WCI  25
SOUTH HAVEN    CLOUDY    36  27  71 NW10      29.97R WCI  28
$$
MIZ016>042-262300-
NORTHERN LOWER MICHIGAN

CITY           SKY/WX    TMP DP  RH WIND       PRES   REMARKS
ALPENA         CLOUDY    33  25  72 W10G22    29.83R WCI  25
BEAVER ISLAND  CLOUDY    22  13  70 NW14G24   29.95R WCI   9
BELLAIRE       LGT SNOW  25  18  74 NW9G20    29.96R WCI  15
CADILLAC       FLURRIES  28  20  73 NW16      29.89R WCI  15
CHARLEVOIX     LGT SNOW  24  18  77 NW16G22   29.98R WCI  11
FRANKFORT      LGT SNOW  29  18  64 N12G18    29.98R WCI  19
GAYLORD        CLOUDY    24  18  77 W13G21    29.86R WCI  12
GRAYLING       LGT SNOW  25  19  75 W16       29.89R WCI  13
HARBOR SPRINGS CLOUDY    25  17  69 W14G22    29.92R WCI  13
HOUGHTON LAKE  CLOUDY    27  19  72 NW16G23   29.87R WCI  15
MANISTEE       CLOUDY    28  18  64 N12G18    29.97R WCI  18
OSCODA         CLOUDY    38  25  58 W15G21    29.81R WCI  30
PELLSTON       LGT SNOW  25  18  74 NW17      29.91R WCI  12
ROGERS CITY    FLURRIES  31  27  84 NW15G22   29.85R WCI  21
TRAVERSE CITY  FLURRIES  26  18  71 N10G18    29.96R WCI  16
$$
MIZ007>008-015-262300-
EASTERN UPPER MICHIGAN

CITY           SKY/WX    TMP DP  RH WIND       PRES   REMARKS
KINROSS        CLOUDY    21  18  86 NW20G28   29.85R WCI   6
MACKINAC ISLAN CLOUDY    26  18  71 NW12G22   29.88R WCI  16
NEWBERRY       LGT SNOW  19  15  82 NW13G22   29.92R WCI   7
S. S. MARIE    LGT SNOW  23  18  81 NW17G25   29.85R WCI   9
$$
MIZ004>006-011>014-085-262300-
CENTRAL UPPER MICHIGAN

CITY           SKY/WX    TMP DP  RH WIND       PRES   REMARKS
MANISTIQUE     FLURRIES  21  13  71 NW22G33   29.96R WCI   5
ESCANABA       CLOUDY    25  10  54 N12G25    30.01R WCI  14
MENOMINEE      CLOUDY    28  12  50 N14G21    30.00R WCI  17
SAWYER-GWINN   LGT SNOW  18  12  79 N18G25    29.99R WCI   2
$$
MIZ001>003-009>011-084-262300-
WESTERN UPPER MICHIGAN

CITY           SKY/WX    TMP DP  RH WIND       PRES   REMARKS
IRON MOUNTAIN  CLOUDY    23  11  60 NW18      29.99R WCI   9
HOUGHTON       MOSUNNY   19   5  54 N14G23    30.06R WCI   6
COPPER HARBOR    N/A     21  10  62 N18       30.07R WCI   6
IRONWOOD       PTSUNNY   21   7  53 N9        30.07R WCI  11
$$

ABBREVIATIONS USED IN REMARKS
   TC - TEMPERATURE IN CELSIUS
  WCI - WIND CHILL INDEX
   HX - HEAT INDEX
  VSB - VISIBILITY




USA.gov is the U.S. government's official web portal to all federal, state and local government web resources and services.